Location: ??
(32.3997°N, 98.0963°E)
Time: 13:13:49
(UTC+00:00)

Daily predictions for brighter satellites

Satellite Brightness Start Highest point End
(mag) Time Altitude Azimuth Time Altitude Azimuth Time Altitude Azimuth
OAO 3 Copernicus 4.4 12:05:48 10° WNW 12:10:50 78° N 12:15:50 10° E
Kosmos-1783 3.2 12:07:39 10° SSW 12:11:45 87° WNW 12:14:14 10° NNE
Iridium 4 Rocket 4.0 12:12:40 10° NNE 12:16:04 24° E 12:19:29 10° SE
Cosmos 1844 Rocket 3.0 12:11:35 10° NNW 12:17:14 71° WSW 12:22:51 10° S
ADEOS 4.1 12:14:06 10° SE 12:18:54 39° ENE 12:23:44 10° N
Cosmos 2322 3.7 12:14:14 10° S 12:19:47 62° ESE 12:25:21 10° NNE
USA 306 3.3 12:21:26 10° WSW 12:23:59 40° NW 12:27:06 10° NNE
ISS -3.0 12:21:03 10° SSW 12:24:06 33° SE 12:27:00 11° ENE
ATLAS 3B R/B 3.0 12:19:51 10° NNW 12:27:46 84° ENE 12:35:19 10° SSE
Intercosmos 24 4.2 12:25:39 10° N 12:29:22 77° W 12:34:12 10° S
IUS-7 SRM-1 4.5 12:27:05 10° SW 12:30:05 32° SSE 12:37:13 14° E
Cosmos 1674 4.0 12:30:05 10° NE 12:32:18 17° ENE 12:32:21 17° ENE
SL-08 R/B 3.4 12:27:58 10° NNE 12:32:55 86° WNW 12:37:49 10° SSW
SJ-6B 2.9 12:31:13 10° SSE 12:34:43 45° ENE 12:38:12 10° N
Hubble Space Telescope 3.3 12:33:49 10° SW 12:35:04 11° SSW 12:36:17 10° S
Tsikada Rocket 4.0 12:30:23 10° N 12:36:38 70° E 12:42:58 10° SSE
USA 186 3.4 12:37:30 18° ENE 12:37:30 18° ENE 12:39:38 10° NNE
SPOT 1/Viking Rocket 3.6 12:33:29 10° SSE 12:38:35 60° ENE 12:43:40 10° N
COSMOS 2428 2.6 12:34:46 10° SSW 12:40:26 77° ESE 12:46:09 10° NNE
USA 229 DEB 4.3 12:33:51 10° NNW 12:41:22 54° ENE 12:47:53 16° SE
USA 229 4.3 12:34:02 10° NNW 12:41:33 53° ENE 12:47:58 16° SE
Aureole 1 Rocket 3.6 12:41:27 10° NNW 12:45:04 44° WSW 12:48:06 10° S
Cosmos 1898 Rocket 3.7 12:40:03 10° NNW 12:45:20 74° WSW 12:50:32 10° S
Cosmos 1340 3.8 12:42:21 10° SSW 12:45:26 40° W 12:48:32 10° N
Resurs 1-3 3.5 12:43:09 10° SSE 12:47:28 88° ENE 12:51:49 10° N
Cosmos 1814 Rocket 3.9 12:44:53 10° S 12:50:11 76° ESE 12:55:28 10° NNE
Cosmos 1743 3.5 12:47:38 10° SSW 12:51:06 49° W 12:54:35 10° N
Helios 1A 3.4 12:48:07 10° N 12:52:07 63° WNW 12:56:07 10° SSW
Cosmos 1626 3.5 12:49:48 10° NNW 12:52:30 31° W 12:55:10 10° SSW
Cosmos 1726 2.8 12:50:19 10° SSW 12:52:58 40° W 12:55:37 10° N
CZ-4B DEB 4.1 12:50:54 10° SSE 12:56:24 75° ENE 13:01:54 10° N
Meteor 2-4 Rocket 4.0 12:50:35 10° N 12:56:30 77° W 13:02:18 10° S
Cosmos 1151 Rocket 3.5 12:52:27 10° NNW 12:56:38 61° W 13:00:48 10° S
PAYLOAD B 4.3 12:52:40 14° SSE 12:57:22 57° ENE 13:02:50 10° N
Cosmos 1400 Rocket 2.9 12:54:23 10° N 12:58:04 47° E 12:58:57 38° ESE
USA 59 Rocket 2.0 12:55:23 10° NNE 12:58:28 18° ENE 12:58:44 18° ENE
Meteor PRIRODA 3.4 12:55:44 14° S 12:58:31 77° W 13:01:49 10° NNW
Okean 3 Rocket 4.0 12:57:55 24° SE 13:00:04 40° E 13:04:15 10° NNE
Meteor 1-14 Rocket 4.1 12:56:39 10° S 13:02:10 70° E 13:07:40 10° NNE
CZ-4B R/B 3.5 12:57:32 10° S 13:02:14 71° WSW 13:06:59 10° NNW
CZ-4B R/B 3.5 13:00:19 26° SE 13:03:00 46° ENE 13:08:10 10° N
Okean O Rocket 2.9 13:05:21 24° ENE 13:05:21 24° ENE 13:08:22 10° NNE
Cosmos 1536 3.7 13:08:00 30° NE 13:08:00 30° NE 13:10:18 10° NNE
CZ-4 R/B 1.1 13:04:58 27° SSE 13:06:55 86° ENE 13:10:44 10° N
Cosmos 2278 Rocket 3.5 13:02:51 10° NNE 13:07:03 21° ENE 13:07:14 21° ENE
Meteor 1-11 Rocket 4.2 13:06:33 31° SE 13:08:09 37° E 13:13:16 10° NNE
Resurs 01 Rocket 1.6 13:11:26 42° SE 13:12:41 61° ENE 13:17:03 10° N
ACS3 Solar Sail 2.4 13:12:09 33° E 13:13:39 37° ENE 13:19:25 10° N
ATLAS CENTAUR R/B 3.5 13:10:04 10° NW 13:15:58 67° SW 13:22:35 19° SSE
Meteor 2-17 Rocket 4.4 13:14:03 10° N 13:19:59 56° E 13:22:00 39° SE
Cosmos 2237 Rocket 2.0 13:22:07 10° SSW 13:27:42 74° ESE 13:33:19 10° NNE
OAO 2 Rocket 3.2 13:23:30 10° WNW 13:28:23 70° SSW 13:29:00 62° SSE
CZ-4B R/B 3.8 13:30:24 29° SSW 13:31:46 42° W 13:35:26 10° NNW
Lacrosse 4 Rocket 1.4 13:28:56 10° NNW 13:33:02 78° N 13:33:02 78° N
Aureole 3 Rocket 4.4 13:30:26 30° SSE 13:34:12 51° E 13:40:12 10° NNE
Cosmos 1570 Rocket 3.8 13:29:56 10° S 13:35:12 72° ESE 13:40:27 10° NNE
Cosmos 1356 Rocket 4.4 13:31:27 10° N 13:34:05 36° NNE 13:34:05 36° NNE
CSL-04 Rocket 3.5 13:37:17 52° SSE 13:38:40 90° ENE 13:44:03 10° NNW
BlueWalker 3 4.3 13:38:48 10° N 13:40:00 15° N 13:40:00 15° N
GEOS 3 Rocket 3.9 13:43:28 47° S 13:44:45 61° WSW 13:49:54 10° NW
Meteor 2-10 4.1 13:45:56 37° SSW 13:48:11 82° W 13:53:50 10° N
Intelsat 5-1 Rocket 4.5 13:47:56 10° SW 13:48:26 13° SSW 13:48:26 13° SSW
MOS 1-B 4.3 13:52:14 62° S 13:53:15 80° WSW 13:59:04 10° NNW
USA 215 3.1 13:53:16 45° NE 13:55:28 77° SE 14:01:59 10° SW
Nadezhda 4 Rocket 3.9 13:49:19 10° N 13:55:22 71° ENE 13:55:22 71° ENE
Cosmos 1980 4.3 13:51:10 10° SW 13:56:42 56° WNW 14:02:18 10° N
Cosmos 1464 Rocket 4.4 13:53:06 10° SSW 13:59:15 60° W 14:05:31 10° N
ISS -0.8 13:58:27 10° W 14:00:03 17° WNW 14:00:03 17° WNW
Cosmos 44 Rocket 4.3 13:58:48 10° NW 14:02:48 40° W 14:02:48 40° W
Cosmos 2034 Rocket 4.3 14:18:36 58° WSW 14:19:17 62° W 14:25:25 10° N
Cosmos 1943 Rocket 3.5 14:21:20 10° NNW 14:24:12 31° N 14:24:12 31° N
Okean O Rocket 4.2 14:42:41 18° WNW 14:42:41 18° WNW 14:44:23 10° NW
USA 59 Rocket 2.5 14:43:17 10° NW 14:45:07 24° NW 14:45:07 24° NW
Cosmos 2278 Rocket 3.8 14:45:55 10° NW 14:49:05 31° NW 14:49:05 31° NW
ACS3 Solar Sail 3.4 14:57:26 29° W 14:57:38 29° W 15:03:06 10° NW
CENTAUR R/B 3.4 20:14:14 39° ENE 20:14:14 39° ENE 20:18:41 10° NE
Nadezhda 3 Rocket 4.5 20:24:56 54° ESE 20:25:16 54° E 20:31:20 10° NNE
SL-16 R/B 3.0 20:32:03 51° N 20:32:03 51° N 20:36:34 10° NNW
DELTA 2 R/B (1) 4.3 20:36:13 47° NNE 20:36:13 47° NNE 20:40:42 10° ENE
Cosmos 2322 Rocket 3.8 20:37:25 10° N 20:42:29 32° ENE 20:47:29 10° SE
Tiangong 1.2 20:49:26 12° E 20:49:26 12° E 20:49:46 10° E
Envisat 3.8 20:43:35 10° N 20:46:56 42° N 20:46:56 42° N
ADEOS II 4.3 20:52:04 10° NNW 20:52:54 13° NNW 20:52:54 13° NNW
Cosmos 2333 Rocket 3.9 20:51:36 10° N 20:56:43 33° ENE 21:01:45 10° SE
CZ-3 R/B 3.8 20:46:21 36° SW 20:58:17 59° S 21:07:36 10° E
Cosmos 1900 4.4 20:59:07 71° NNE 20:59:07 71° NNE 21:03:35 10° NNE
CZ-3 Stage 3 4.1 21:00:41 10° SE 21:02:00 11° SE 21:03:41 10° ESE
Cosmos 2278 3.6 20:57:29 10° NNW 21:06:59 21° S 21:08:44 10° SSE
SL-16 R/B 2.1 20:58:24 10° NNW 21:04:06 87° ENE 21:09:45 10° SSE
Cosmos 1190 Rocket 3.8 21:05:38 76° NW 21:05:38 76° NW 21:10:38 10° NNE
IRS-1D 4.1 21:01:22 10° NNE 21:06:36 56° E 21:09:41 24° S
CZ-2C R/B 2.2 21:02:21 10° NNE 21:07:11 87° ESE 21:07:16 86° SSE
Cosmos 2228 4.3 21:10:26 30° NNW 21:10:26 30° NNW 21:12:41 10° N
Cosmos 2084 3.7 21:09:36 64° NE 21:09:36 64° NE 21:13:05 10° NNE
Lacrosse 5 rocket 2.8 21:11:03 25° ESE 21:11:03 25° ESE 21:13:59 10° ENE
Okean 1-7 Rocket 4.2 21:13:57 10° N 21:18:20 56° E 21:22:39 10° SSE
NOSS 3-2 (C) 4.4 21:15:15 15° SSE 21:18:38 33° ESE 21:23:27 10° NE
Cosmos 676 Rocket 3.9 21:19:36 42° S 21:21:22 86° ESE 21:26:34 10° NNE
COSMOS 2455 3.7 21:22:14 32° WNW 21:22:24 32° WNW 21:27:46 10° N
SJ 16-02 4.1 21:26:16 10° SE 21:29:05 17° E 21:31:55 10° NE
CZ-4 R/B 4.0 21:27:01 10° N 21:31:29 47° WNW 21:31:45 46° W
Atlas Centaur 2 2.7 21:29:49 36° SSW 21:31:42 50° SSE 21:38:12 10° E
Cosmos 1666 4.2 21:30:31 10° NNW 21:31:40 20° NNW 21:31:40 20° NNW
Cosmos 1934 Rocket 4.0 21:29:46 10° N 21:36:07 89° E 21:42:29 10° S
Cosmos 2285 Rocket 4.0 21:31:22 14° SSW 21:36:55 87° ESE 21:43:19 10° NNE
Meteor 1-27 4.3 21:36:11 35° SW 21:38:11 51° W 21:43:36 10° N
Cosmos 1602 Rocket 3.4 21:33:56 10° N 21:38:23 78° W 21:42:47 10° S
Kosmos-1783 3.7 21:38:10 47° WNW 21:39:03 67° WSW 21:44:25 10° SSE
Cosmos 1626 Rocket 4.4 21:37:24 10° NNW 21:40:21 31° WNW 21:40:21 31° WNW
SeaSat 1 2.3 21:36:37 10° SSE 21:41:30 72° WSW 21:46:25 10° NNW
Meteor 2-3 Rocket 4.1 21:40:17 10° NNW 21:45:39 40° W 21:51:00 10° SSW
Cosmos 1954 Rocket 4.4 21:45:23 33° WSW 21:46:49 40° WNW 21:51:41 10° N
ATLAS 5 CENTAUR R/B 0.6 21:46:35 49° SSW 21:47:21 89° SSE 21:50:38 10° NNE
PAYLOAD A 4.5 21:48:03 10° N 21:52:20 35° WNW 21:53:52 28° WSW
NOSS 3-2 (A) 3.6 21:51:52 28° WSW 21:53:55 41° NW 21:59:16 10° NNE
Cosmos 1862 4.1 21:52:08 10° NNW 21:54:46 28° WNW 21:54:46 28° WNW
Cosmos 1602 3.5 21:52:08 10° N 21:55:39 81° E 21:59:09 10° S
CENTAUR R/B 3.6 22:01:23 18° WNW 22:03:47 23° NW 22:08:53 10° N
BREEZE-M R/B 4.3 22:04:06 10° S 22:06:12 18° SE 22:08:01 10° E
Cosmos 1484 Rocket 2.6 22:03:48 10° N 22:07:32 82° WNW 22:11:17 10° SSW
H-2A R/B 2.5 22:03:04 10° N 22:08:12 45° WNW 22:13:19 10° SW
Cosmos 1867 4.3 22:08:09 19° WSW 22:11:18 34° NW 22:16:15 10° N
Cosmos 2058 Rocket 3.2 22:10:05 10° S 22:14:27 78° E 22:18:54 10° N
Cosmos 2360 Rocket 2.4 22:10:44 10° NW 22:16:02 45° WSW 22:21:20 10° S
Cosmos 2297 Rocket 3.2 22:15:40 10° S 22:21:04 48° ESE 22:26:29 10° NNE
Cosmos 1605 Rocket 3.9 22:14:57 10° NNW 22:21:08 67° W 22:27:12 10° S
ARIANE 5 R/B 4.0 22:17:36 10° NNE 22:22:23 39° E 22:27:05 10° SSE
USA 215 3.9 22:16:38 10° ESE 22:23:00 57° NE 22:29:24 10° NNW
Tiangong -1.5 22:21:32 16° W 22:23:38 37° SW 22:26:32 10° SE
Cosmos 1939 Rocket 3.1 22:20:19 10° N 22:24:07 45° WNW 22:27:53 10° SSW
Cosmos 1726 Rocket 4.1 22:20:55 10° SW 22:24:50 34° W 22:28:48 10° NNW
Cosmos 1741 Rocket 4.0 22:19:56 10° SSW 22:25:08 69° WNW 22:30:22 10° N
Cosmos 2322 Rocket 3.0 22:21:37 10° NW 22:26:18 27° WSW 22:30:57 10° SSW
Cosmos-2242 4.3 22:23:23 10° SSE 22:27:22 44° E 22:31:23 10° NNE
Cosmos 468 Rocket 4.3 22:23:00 10° NNW 22:27:57 44° WSW 22:32:54 10° S
Cosmos 1812 4.0 22:27:02 13° WSW 22:28:59 18° WNW 22:31:31 10° NNW
USA 238 DEB 3.9 22:24:15 10° SSW 22:30:13 67° ESE 22:36:37 10° NE
USA 238 3.9 22:24:19 10° SSW 22:30:19 66° ESE 22:36:43 10° NE
ARGOS 3.1 22:25:15 10° N 22:30:33 68° WNW 22:35:52 10° SSW
Cosmos 841 Rocket 3.5 22:26:22 10° NNW 22:31:31 84° ENE 22:36:38 10° SSE
Cosmos 2151 3.0 22:29:55 10° NNW 22:33:57 54° W 22:37:58 10° S
Cosmos 540 Rocket 4.2 22:29:53 10° NW 22:34:20 31° W 22:38:46 10° SSW
Cosmos 2219 Rocket 2.2 22:30:01 10° NNW 22:35:34 63° WSW 22:41:04 10° S
Cosmos 2333 Rocket 3.0 22:36:04 10° NW 22:40:47 27° WSW 22:45:28 10° SSW
Cosmos 1818 4.4 22:37:33 10° NW 22:42:07 28° WSW 22:46:36 10° SSW
Cosmos 1238 Rocket 3.7 22:37:57 10° S 22:43:17 90° E 22:49:02 10° N
COSMO-SKYMED 1 2.9 22:40:43 10° SSE 22:45:00 72° ENE 22:49:21 10° N
